Time,TemperatureF,DewpointF,PressureIn,WindDirection,WindDirectionDegrees,WindSpeedMPH,WindSpeedGustMPH,Humidity,HourlyPrecipIn,Conditions,Clouds,dailyrainin,SoftwareType,DateUTC
2013-05-25 00:02:00,51.0,-99.9,30.01,South,174,5.0,6.0,-999,-99.99,,,-99.99,,2013-05-25 08:02:00,
2013-05-25 00:11:00,51.0,-99.9,30.00,SSE,168,6.0,7.0,-999,-99.99,,,-99.99,,2013-05-25 08:11:00,
2013-05-25 00:23:00,50.0,-99.9,30.00,SSE,164,4.0,6.0,-999,-99.99,,,-99.99,,2013-05-25 08:23:00,
2013-05-25 00:32:00,50.0,-99.9,30.00,SSE,154,4.0,5.0,-999,-99.99,,,-99.99,,2013-05-25 08:32:00,
2013-05-25 00:42:00,50.0,-99.9,30.01,SSE,163,5.0,6.0,-999,-99.99,,,-99.99,,2013-05-25 08:42:00,
2013-05-25 00:52:00,49.0,-99.9,30.00,South,169,4.0,5.0,-999,-99.99,,,-99.99,,2013-05-25 08:52:00,
2013-05-25 01:02:00,49.0,-99.9,30.00,South,174,4.0,5.0,-999,-99.99,,,-99.99,,2013-05-25 09:02:00,
2013-05-25 01:11:00,49.0,-99.9,30.00,SSE,158,3.0,4.0,-999,-99.99,,,-99.99,,2013-05-25 09:11:00,
2013-05-25 01:22:00,49.0,-99.9,30.00,SSE,159,2.0,2.0,-999,-99.99,,,-99.99,,2013-05-25 09:22:00,
2013-05-25 01:33:00,48.0,-99.9,30.00,East,83,1.0,2.0,-999,-99.99,,,-99.99,,2013-05-25 09:33:00,
2013-05-25 01:43:00,48.0,-99.9,30.00,ENE,68,1.0,2.0,-999,-99.99,,,-99.99,,2013-05-25 09:43:00,
2013-05-25 01:53:00,48.0,-99.9,30.00,NE,39,4.0,4.0,-999,-99.99,,,-99.99,,2013-05-25 09:53:00,
2013-05-25 02:03:00,48.0,-99.9,30.00,NE,38,3.0,4.0,-999,-99.99,,,-99.99,,2013-05-25 10:03:00,
2013-05-25 02:13:00,47.0,-99.9,30.00,ENE,59,2.0,3.0,-999,-99.99,,,-99.99,,2013-05-25 10:13:00,
2013-05-25 02:23:00,47.0,-99.9,30.00,ENE,75,2.0,2.0,-999,-99.99,,,-99.99,,2013-05-25 10:23:00,
2013-05-25 02:33:00,47.0,-99.9,30.00,NNE,31,1.0,3.0,-999,-99.99,,,-99.99,,2013-05-25 10:33:00,
2013-05-25 02:42:00,46.0,-99.9,30.00,North,2,2.0,3.0,-999,-99.99,,,-99.99,,2013-05-25 10:42:00,
2013-05-25 02:52:00,46.0,-99.9,30.00,North,9,4.0,4.0,-999,-99.99,,,-99.99,,2013-05-25 10:52:00,
2013-05-25 03:03:00,46.0,-99.9,30.00,North,5,3.0,5.0,-999,-99.99,,,-99.99,,2013-05-25 11:03:00,
2013-05-25 03:12:00,46.0,-99.9,29.99,North,11,5.0,7.0,-999,-99.99,,,-99.99,,2013-05-25 11:12:00,
2013-05-25 03:22:00,46.0,-99.9,29.99,NNE,22,5.0,7.0,-999,-99.99,,,-99.99,,2013-05-25 11:22:00,
2013-05-25 03:32:00,46.0,-99.9,29.99,NNE,19,5.0,7.0,-999,-99.99,,,-99.99,,2013-05-25 11:32:00,
2013-05-25 03:42:00,45.0,-99.9,29.99,South,180,6.0,7.0,-999,-99.99,,,-99.99,,2013-05-25 11:42:00,
2013-05-25 03:52:00,44.0,-99.9,29.99,South,177,6.0,8.0,-999,-99.99,,,-99.99,,2013-05-25 11:52:00,
2013-05-25 04:02:00,44.0,-99.9,29.99,South,173,6.0,7.0,-999,-99.99,,,-99.99,,2013-05-25 12:02:00,
2013-05-25 04:12:00,44.0,-99.9,29.99,SSE,149,4.0,5.0,-999,-99.99,,,-99.99,,2013-05-25 12:12:00,
2013-05-25 04:22:00,43.0,-99.9,29.98,SSE,165,2.0,4.0,-999,-99.99,,,-99.99,,2013-05-25 12:22:00,
2013-05-25 04:32:00,43.0,-99.9,29.98,SSE,162,2.0,2.0,-999,-99.99,,,-99.99,,2013-05-25 12:32:00,
2013-05-25 04:42:00,42.0,-99.9,29.98,SSE,156,3.0,4.0,-999,-99.99,,,-99.99,,2013-05-25 12:42:00,
2013-05-25 04:52:00,42.0,-99.9,29.98,SE,139,-999.0,1.0,-999,-99.99,,,-99.99,,2013-05-25 12:52:00,
2013-05-25 05:02:00,42.0,-99.9,29.98,South,172,2.0,2.0,-999,-99.99,,,-99.99,,2013-05-25 13:02:00,
2013-05-25 05:11:00,41.0,-99.9,29.98,SE,139,1.0,2.0,-999,-99.99,,,-99.99,,2013-05-25 13:11:00,
2013-05-25 05:22:00,41.0,-99.9,29.98,SSE,163,2.0,2.0,-999,-99.99,,,-99.99,,2013-05-25 13:22:00,
2013-05-25 05:32:00,41.0,-99.9,29.98,SSE,159,1.0,2.0,-999,-99.99,,,-99.99,,2013-05-25 13:32:00,
2013-05-25 05:42:00,41.0,-99.9,29.98,South,179,1.0,2.0,-999,-99.99,,,-99.99,,2013-05-25 13:42:00,
2013-05-25 05:52:00,41.0,-99.9,29.98,SSE,168,1.0,1.0,-999,-99.99,,,-99.99,,2013-05-25 13:52:00,
2013-05-25 06:02:00,40.0,-99.9,29.97,SSE,159,3.0,4.0,-999,-99.99,,,-99.99,,2013-05-25 14:02:00,
2013-05-25 06:11:00,40.0,-99.9,29.98,South,176,2.0,3.0,-999,-99.99,,,-99.99,,2013-05-25 14:11:00,
2013-05-25 06:22:00,41.0,-99.9,29.97,North,357,3.0,4.0,-999,-99.99,,,-99.99,,2013-05-25 14:22:00,
2013-05-25 06:32:00,41.0,-99.9,29.97,North,8,3.0,4.0,-999,-99.99,,,-99.99,,2013-05-25 14:32:00,
2013-05-25 06:42:00,42.0,-99.9,29.97,NNE,12,3.0,5.0,-999,-99.99,,,-99.99,,2013-05-25 14:42:00,
2013-05-25 06:52:00,43.0,-99.9,29.97,NNE,29,3.0,4.0,-999,-99.99,,,-99.99,,2013-05-25 14:52:00,
2013-05-25 07:02:00,43.0,-99.9,29.97,NE,43,3.0,4.0,-999,-99.99,,,-99.99,,2013-05-25 15:02:00,
2013-05-25 07:12:00,44.0,-99.9,29.97,NNW,347,0.0,4.0,-999,-99.99,,,-99.99,,2013-05-25 15:12:00,
2013-05-25 07:22:00,43.0,-99.9,29.97,SE,135,0.0,2.0,-999,-99.99,,,-99.99,,2013-05-25 15:22:00,
2013-05-25 07:33:00,42.0,-99.9,29.97,SSE,161,-999.0,2.0,-999,-99.99,,,-99.99,,2013-05-25 15:33:00,
2013-05-25 07:43:00,43.0,-99.9,29.96,ESE,103,-999.0,1.0,-999,-99.99,,,-99.99,,2013-05-25 15:43:00,
2013-05-25 07:53:00,42.0,-99.9,29.97,South,172,1.0,2.0,-999,-99.99,,,-99.99,,2013-05-25 15:53:00,
2013-05-25 08:03:00,41.0,-99.9,29.97,SSE,162,1.0,3.0,-999,-99.99,,,-99.99,,2013-05-25 16:03:00,
2013-05-25 08:12:00,44.0,-99.9,29.97,NE,39,-999.0,2.0,-999,-99.99,,,-99.99,,2013-05-25 16:12:00,
2013-05-25 08:23:00,45.0,-99.9,29.96,NNE,12,2.0,5.0,-999,-99.99,,,-99.99,,2013-05-25 16:23:00,
2013-05-25 08:33:00,44.0,-99.9,29.96,NNE,18,4.0,6.0,-999,-99.99,,,-99.99,,2013-05-25 16:33:00,
2013-05-25 08:42:00,44.0,-99.9,29.96,NNE,21,6.0,7.0,-999,-99.99,,,-99.99,,2013-05-25 16:42:00,
2013-05-25 08:52:00,44.0,-99.9,29.97,NNE,22,6.0,8.0,-999,-99.99,,,-99.99,,2013-05-25 16:52:00,
2013-05-25 09:03:00,44.0,-99.9,29.96,NNE,14,6.0,9.0,-999,-99.99,,,-99.99,,2013-05-25 17:03:00,
2013-05-25 09:11:00,43.0,-99.9,29.96,North,9,8.0,9.0,-999,-99.99,,,-99.99,,2013-05-25 17:11:00,
2013-05-25 09:22:00,44.0,-99.9,29.96,NNE,17,5.0,8.0,-999,-99.99,,,-99.99,,2013-05-25 17:22:00,
2013-05-25 09:33:00,44.0,-99.9,29.96,North,10,5.0,6.0,-999,-99.99,,,-99.99,,2013-05-25 17:33:00,
2013-05-25 09:42:00,44.0,-99.9,29.96,North,8,7.0,9.0,-999,-99.99,,,-99.99,,2013-05-25 17:42:00,
2013-05-25 09:52:00,44.0,-99.9,29.96,NNE,12,7.0,10.0,-999,-99.99,,,-99.99,,2013-05-25 17:52:00,
2013-05-25 10:02:00,44.0,-99.9,29.96,North,10,7.0,10.0,-999,-99.99,,,-99.99,,2013-05-25 18:02:00,
2013-05-25 10:12:00,45.0,-99.9,29.96,North,354,6.0,10.0,-999,-99.99,,,-99.99,,2013-05-25 18:12:00,
2013-05-25 10:22:00,45.0,-99.9,29.96,North,354,6.0,10.0,-999,-99.99,,,-99.99,,2013-05-25 18:22:00,
2013-05-25 10:32:00,45.0,-99.9,29.96,North,354,6.0,10.0,-999,-99.99,,,-99.99,,2013-05-25 18:32:00,
2013-05-25 10:52:00,44.0,-99.9,29.96,North,355,9.0,10.0,-999,-99.99,,,-99.99,,2013-05-25 18:52:00,
2013-05-25 11:02:00,44.0,-99.9,29.96,North,2,9.0,12.0,-999,-99.99,,,-99.99,,2013-05-25 19:02:00,
2013-05-25 11:11:00,45.0,-99.9,29.96,North,5,8.0,11.0,-999,-99.99,,,-99.99,,2013-05-25 19:11:00,
2013-05-25 11:22:00,45.0,-99.9,29.96,North,2,9.0,12.0,-999,-99.99,,,-99.99,,2013-05-25 19:22:00,
2013-05-25 11:32:00,45.0,-99.9,29.96,North,359,10.0,13.0,-999,-99.99,,,-99.99,,2013-05-25 19:32:00,
2013-05-25 11:42:00,45.0,-99.9,29.96,NNE,13,9.0,13.0,-999,-99.99,,,-99.99,,2013-05-25 19:42:00,
2013-05-25 11:52:00,45.0,-99.9,29.96,North,5,9.0,12.0,-999,-99.99,,,-99.99,,2013-05-25 19:52:00,
2013-05-25 12:02:00,45.0,-99.9,29.96,North,11,9.0,13.0,-999,-99.99,,,-99.99,,2013-05-25 20:02:00,
2013-05-25 12:11:00,46.0,-99.9,29.96,North,10,7.0,12.0,-999,-99.99,,,-99.99,,2013-05-25 20:11:00,
2013-05-25 12:22:00,45.0,-99.9,29.96,NNE,20,9.0,13.0,-999,-99.99,,,-99.99,,2013-05-25 20:22:00,
2013-05-25 12:32:00,44.0,-99.9,29.96,NNE,18,11.0,13.0,-999,-99.99,,,-99.99,,2013-05-25 20:32:00,
2013-05-25 12:42:00,44.0,-99.9,29.96,NNE,19,10.0,15.0,-999,-99.99,,,-99.99,,2013-05-25 20:42:00,
2013-05-25 12:52:00,45.0,-99.9,29.96,NNE,18,8.0,13.0,-999,-99.99,,,-99.99,,2013-05-25 20:52:00,
2013-05-25 13:02:00,44.0,-99.9,29.96,NNE,22,10.0,14.0,-999,-99.99,,,-99.99,,2013-05-25 21:02:00,
2013-05-25 13:11:00,43.0,-99.9,29.96,NNE,23,10.0,14.0,-999,-99.99,,,-99.99,,2013-05-25 21:11:00,
2013-05-25 13:22:00,43.0,-99.9,29.96,NNE,18,10.0,13.0,-999,-99.99,,,-99.99,,2013-05-25 21:22:00,
2013-05-25 13:33:00,43.0,-99.9,29.96,NNE,17,10.0,15.0,-999,-99.99,,,-99.99,,2013-05-25 21:33:00,
2013-05-25 13:43:00,44.0,-99.9,29.96,NNE,12,7.0,14.0,-999,-99.99,,,-99.99,,2013-05-25 21:43:00,
2013-05-25 13:53:00,44.0,-99.9,29.96,North,8,6.0,8.0,-999,-99.99,,,-99.99,,2013-05-25 21:53:00,
2013-05-25 14:03:00,44.0,-99.9,29.96,NNE,16,8.0,12.0,-999,-99.99,,,-99.99,,2013-05-25 22:03:00,
2013-05-25 14:13:00,44.0,-99.9,29.96,North,10,6.0,9.0,-999,-99.99,,,-99.99,,2013-05-25 22:13:00,
2013-05-25 14:23:00,44.0,-99.9,29.96,North,9,6.0,10.0,-999,-99.99,,,-99.99,,2013-05-25 22:23:00,
2013-05-25 14:33:00,43.0,-99.9,29.96,NNE,17,6.0,11.0,-999,-99.99,,,-99.99,,2013-05-25 22:33:00,
2013-05-25 14:42:00,43.0,-99.9,29.96,North,11,6.0,11.0,-999,-99.99,,,-99.99,,2013-05-25 22:42:00,
2013-05-25 14:52:00,43.0,-99.9,29.96,NNE,19,6.0,11.0,-999,-99.99,,,-99.99,,2013-05-25 22:52:00,
2013-05-25 15:02:00,42.0,-99.9,29.96,NNE,13,8.0,12.0,-999,-99.99,,,-99.99,,2013-05-25 23:02:00,
2013-05-25 15:12:00,43.0,-99.9,29.96,NNE,16,6.0,9.0,-999,-99.99,,,-99.99,,2013-05-25 23:12:00,
2013-05-25 15:22:00,42.0,-99.9,29.96,NNE,15,8.0,12.0,-999,-99.99,,,-99.99,,2013-05-25 23:22:00,
2013-05-25 15:32:00,42.0,-99.9,29.96,NNE,17,9.0,13.0,-999,-99.99,,,-99.99,,2013-05-25 23:32:00,
2013-05-25 15:42:00,42.0,-99.9,29.96,NNE,24,11.0,14.0,-999,-99.99,,,-99.99,,2013-05-25 23:42:00,
2013-05-25 15:53:00,43.0,-99.9,29.95,NNE,20,9.0,14.0,-999,-99.99,,,-99.99,,2013-05-25 23:53:00,
2013-05-25 16:02:00,43.0,-99.9,29.95,NNE,15,7.0,13.0,-999,-99.99,,,-99.99,,2013-05-26 00:02:00,
2013-05-25 16:12:00,44.0,-99.9,29.95,NNE,22,7.0,15.0,-999,-99.99,,,-99.99,,2013-05-26 00:12:00,
2013-05-25 16:22:00,44.0,-99.9,29.95,NNE,17,7.0,12.0,-999,-99.99,,,-99.99,,2013-05-26 00:22:00,
2013-05-25 16:32:00,44.0,-99.9,29.95,NNE,15,8.0,13.0,-999,-99.99,,,-99.99,,2013-05-26 00:32:00,
2013-05-25 16:43:00,43.0,-99.9,29.95,NNE,28,11.0,15.0,-999,-99.99,,,-99.99,,2013-05-26 00:43:00,
2013-05-25 16:53:00,43.0,-99.9,29.94,NNE,14,7.0,14.0,-999,-99.99,,,-99.99,,2013-05-26 00:53:00,
2013-05-25 17:01:00,43.0,-99.9,29.94,NNE,15,11.0,15.0,-999,-99.99,,,-99.99,,2013-05-26 01:01:00,
2013-05-25 17:11:00,43.0,-99.9,29.94,NNE,25,10.0,15.0,-999,-99.99,,,-99.99,,2013-05-26 01:11:00,
2013-05-25 17:21:00,43.0,-99.9,29.94,NNE,20,10.0,15.0,-999,-99.99,,,-99.99,,2013-05-26 01:21:00,
2013-05-25 17:32:00,43.0,-99.9,29.94,NNE,18,9.0,11.0,-999,-99.99,,,-99.99,,2013-05-26 01:32:00,
2013-05-25 17:42:00,43.0,-99.9,29.93,NNE,29,11.0,14.0,-999,-99.99,,,-99.99,,2013-05-26 01:42:00,
2013-05-25 17:53:00,43.0,-99.9,29.93,NNE,19,7.0,12.0,-999,-99.99,,,-99.99,,2013-05-26 01:53:00,
2013-05-25 18:02:00,42.0,-99.9,29.93,North,10,7.0,12.0,-999,-99.99,,,-99.99,,2013-05-26 02:02:00,
2013-05-25 18:11:00,43.0,-99.9,29.93,North,6,5.0,9.0,-999,-99.99,,,-99.99,,2013-05-26 02:11:00,
2013-05-25 18:22:00,43.0,-99.9,29.92,NNE,14,8.0,10.0,-999,-99.99,,,-99.99,,2013-05-26 02:22:00,
2013-05-25 18:32:00,43.0,-99.9,29.92,NNE,23,7.0,10.0,-999,-99.99,,,-99.99,,2013-05-26 02:32:00,
2013-05-25 18:42:00,44.0,-99.9,29.92,NNE,17,4.0,10.0,-999,-99.99,,,-99.99,,2013-05-26 02:42:00,
2013-05-25 18:52:00,43.0,-99.9,29.91,North,5,7.0,11.0,-999,-99.99,,,-99.99,,2013-05-26 02:52:00,
2013-05-25 19:01:00,43.0,-99.9,29.91,NNE,26,7.0,12.0,-999,-99.99,,,-99.99,,2013-05-26 03:01:00,
2013-05-25 19:11:00,43.0,-99.9,29.91,NNE,27,8.0,11.0,-999,-99.99,,,-99.99,,2013-05-26 03:11:00,
2013-05-25 19:22:00,43.0,-99.9,29.91,NNE,14,7.0,13.0,-999,-99.99,,,-99.99,,2013-05-26 03:22:00,
2013-05-25 19:33:00,43.0,-99.9,29.91,NNE,15,7.0,11.0,-999,-99.99,,,-99.99,,2013-05-26 03:33:00,
2013-05-25 19:43:00,43.0,-99.9,29.91,North,9,6.0,11.0,-999,-99.99,,,-99.99,,2013-05-26 03:43:00,
2013-05-25 19:53:00,43.0,-99.9,29.91,NNE,18,6.0,9.0,-999,-99.99,,,-99.99,,2013-05-26 03:53:00,
2013-05-25 20:03:00,43.0,-99.9,29.91,NNE,23,9.0,11.0,-999,-99.99,,,-99.99,,2013-05-26 04:03:00,
2013-05-25 20:13:00,42.0,-99.9,29.91,NNE,16,8.0,12.0,-999,-99.99,,,-99.99,,2013-05-26 04:13:00,
2013-05-25 20:23:00,42.0,-99.9,29.91,North,11,6.0,11.0,-999,-99.99,,,-99.99,,2013-05-26 04:23:00,
2013-05-25 20:33:00,42.0,-99.9,29.91,North,7,7.0,11.0,-999,-99.99,,,-99.99,,2013-05-26 04:33:00,
2013-05-25 20:43:00,42.0,-99.9,29.90,North,9,6.0,9.0,-999,-99.99,,,-99.99,,2013-05-26 04:43:00,
2013-05-25 20:52:00,42.0,-99.9,29.90,North,3,8.0,10.0,-999,-99.99,,,-99.99,,2013-05-26 04:52:00,
2013-05-25 21:02:00,42.0,-99.9,29.90,NNE,13,6.0,9.0,-999,-99.99,,,-99.99,,2013-05-26 05:02:00,
2013-05-25 21:12:00,42.0,-99.9,29.90,North,6,7.0,9.0,-999,-99.99,,,-99.99,,2013-05-26 05:12:00,
2013-05-25 21:22:00,42.0,-99.9,29.90,North,10,6.0,10.0,-999,-99.99,,,-99.99,,2013-05-26 05:22:00,
2013-05-25 21:32:00,42.0,-99.9,29.90,North,10,8.0,11.0,-999,-99.99,,,-99.99,,2013-05-26 05:32:00,
2013-05-25 21:42:00,42.0,-99.9,29.90,North,4,8.0,11.0,-999,-99.99,,,-99.99,,2013-05-26 05:42:00,
2013-05-25 21:52:00,42.0,-99.9,29.90,NNE,13,6.0,10.0,-999,-99.99,,,-99.99,,2013-05-26 05:52:00,
2013-05-25 22:01:00,42.0,-99.9,29.90,North,3,8.0,12.0,-999,-99.99,,,-99.99,,2013-05-26 06:01:00,
2013-05-25 22:12:00,42.0,-99.9,29.90,North,10,6.0,11.0,-999,-99.99,,,-99.99,,2013-05-26 06:12:00,
2013-05-25 22:22:00,42.0,-99.9,29.90,North,11,6.0,11.0,-999,-99.99,,,-99.99,,2013-05-26 06:22:00,
2013-05-25 22:32:00,42.0,-99.9,29.89,North,6,7.0,12.0,-999,-99.99,,,-99.99,,2013-05-26 06:32:00,
2013-05-25 22:42:00,42.0,-99.9,29.89,North,10,7.0,12.0,-999,-99.99,,,-99.99,,2013-05-26 06:42:00,
2013-05-25 22:52:00,42.0,-99.9,29.89,NNE,12,7.0,11.0,-999,-99.99,,,-99.99,,2013-05-26 06:52:00,
2013-05-25 23:02:00,42.0,-99.9,29.89,North,4,6.0,12.0,-999,-99.99,,,-99.99,,2013-05-26 07:02:00,
2013-05-25 23:11:00,42.0,-99.9,29.89,North,6,6.0,9.0,-999,-99.99,,,-99.99,,2013-05-26 07:11:00,
2013-05-25 23:22:00,42.0,-99.9,29.89,NNE,12,5.0,10.0,-999,-99.99,,,-99.99,,2013-05-26 07:22:00,
2013-05-25 23:32:00,42.0,-99.9,29.89,NNE,18,7.0,10.0,-999,-99.99,,,-99.99,,2013-05-26 07:32:00,
2013-05-25 23:42:00,42.0,-99.9,29.89,North,7,5.0,9.0,-999,-99.99,,,-99.99,,2013-05-26 07:42:00,
2013-05-25 23:52:00,42.0,-99.9,29.89,NNE,13,6.0,10.0,-999,-99.99,,,-99.99,,2013-05-26 07:52:00,